Home   Weather   Częstochowa   Past weeks

Flag for Poland Past Weather in Częstochowa, Poland — Yesterday and Last 2 Weeks

Now
64 °F

Sunny.


Feels Like: 64 °F
Forecast: 56 / 71 °F
Wind: 8 mph from Southwest

Location: Katowice Airport

Current Time: Jul 25, 2017 at 7:01:51 pm

Latest Report: Jul 25, 2017 at 6:30 pm


Visibility: 10 mi

Pressure: 29.59 "Hg

Humidity: 68%

Dew Point: 54 °F

Location of CzęstochowaLocation

Past Weather in Częstochowa — Graph

°F

Częstochowa Temperature Yesterday

Maximum temperature yesterday: 77 °F (at 1:00 pm)
Minimum temperature yesterday: 54 °F (at 4:30 am)
Average temperature yesterday: 68 °F

High & Low Weather Summary for the Past Weeks

 TemperatureHumidityPressure
High88 °F (Jul 20, 2:30 pm)100% (Jul 11, 5:00 am)30.21 "Hg (Jul 11, 5:00 am)
Low39 °F (Jul 14, 5:00 am)29% (Jul 19, 5:00 pm)29.53 "Hg (Jul 25, 5:00 am)
Average66 °F72%29.96 "Hg
* Reported Jul 10 5:00 pm — Jul 25 5:30 pm, Częstochowa. Weather by CustomWeather, © 2017

Note: Actual official high and low records may vary slightly from our data, if they occured in-between our weather recording intervals... More about our weather records

Advertising

Częstochowa Weather History for the Previous 24 Hours

Scroll right to see more
 ConditionsComfort  
Time TempWeatherWind HumidityBarometerVisibility
5:30 pm
Tue, Jul 25
64 °FMostly cloudy.12 mph68%29.59 "HgN/A
5:00 pm64 °FBroken clouds.13 mph68%29.59 "HgN/A
4:30 pm66 °FScattered clouds.15 mph60%29.62 "HgN/A
4:00 pm64 °FPassing clouds.17 mph60%29.62 "HgN/A
3:30 pm64 °FBroken clouds.17 mph64%29.62 "HgN/A
3:00 pm66 °FBroken clouds.18 mph60%29.62 "HgN/A
2:00 pm64 °FBroken clouds.15 mph68%29.59 "HgN/A
1:30 pm63 °FBroken clouds.16 mph73%29.59 "HgN/A
1:00 pm63 °FBroken clouds.16 mph77%29.59 "HgN/A
12:30 pm61 °FMostly cloudy.14 mph83%29.59 "HgN/A
12:00 pm61 °FCloudy.14 mph83%29.59 "HgN/A
11:30 am61 °FBroken clouds.13 mph83%29.59 "HgN/A
11:00 am59 °FMostly cloudy.15 mph88%29.56 "HgN/A
10:30 am61 °FMostly cloudy.13 mph88%29.59 "HgN/A
10:00 am61 °FPartly sunny.16 mph88%29.56 "HgN/A
9:30 am61 °FMostly cloudy.12 mph88%29.56 "HgN/A
9:00 am61 °FDrizzle. Fog.14 mph88%29.56 "Hg4 mi
8:30 am61 °FCloudy.14 mph88%29.56 "HgN/A
8:00 am61 °FCloudy.14 mph88%29.56 "HgN/A
7:30 am61 °FPartly sunny.12 mph94%29.56 "HgN/A
7:00 am61 °FMostly cloudy.13 mph94%29.56 "HgN/A
6:30 am61 °FFog.14 mph94%29.56 "Hg1 mi
6:00 am61 °FFog.16 mph94%29.56 "Hg1 mi
5:30 am63 °FFog.9 mph94%29.56 "Hg1 mi
5:00 am63 °FFog.12 mph94%29.53 "Hg1 mi
4:30 am63 °FFog.9 mph94%29.56 "Hg3 mi
4:00 am64 °FPartly cloudy.9 mph94%29.56 "Hg5 mi
3:30 am66 °FPassing clouds.6 mph83%29.56 "HgN/A
3:00 am64 °FPassing clouds.3 mph94%29.56 "HgN/A
2:30 am64 °FPassing clouds.2 mph94%29.56 "Hg5 mi
2:00 am64 °FPassing clouds.3 mph94%29.56 "HgN/A
1:30 am63 °FClear.3 mph100%29.59 "Hg4 mi
1:00 am64 °FClear.3 mph94%29.59 "Hg4 mi
12:30 am66 °FClear.3 mph88%29.59 "Hg5 mi
12:00 am64 °FPassing clouds.3 mph94%29.59 "Hg4 mi
11:30 pm
Mon, Jul 24
64 °FPassing clouds.3 mph94%29.62 "Hg5 mi
11:00 pm64 °FPassing clouds.2 mph94%29.62 "HgN/A
10:30 pm64 °FSprinkles. Mostly cloudy.12 mph94%29.62 "Hg5 mi
10:00 pm66 °FThundershowers. Partly cloudy.17 mph88%29.65 "Hg3 mi
9:30 pm68 °FSprinkles. Passing clouds.7 mph78%29.62 "HgN/A
9:00 pm68 °FSprinkles. Passing clouds.5 mph78%29.65 "HgN/A
8:30 pm70 °FSprinkles. Scattered clouds.7 mph73%29.65 "HgN/A
8:00 pm72 °FSprinkles. Passing clouds.6 mph65%29.65 "HgN/A
7:30 pm73 °FSprinkles. Passing clouds.7 mph61%29.68 "HgN/A
7:00 pm73 °FSunny.6 mph61%29.68 "Hg10 mi
Weather by CustomWeather, © 2017

See weather overviewHow to use our weather pages